Location: Santa Cristina
(46.5667°N, 11.7167°E)
Time: 03:28:57
(UTC+00:00)

Cosmos 1707 - Pass Details

Date: 21 April 2021
Orbit: 514 x 530 km, 82.5° (Epoch: 10 May)

Event Time Altitude Azimuth Distance (km) Brightness Sun altitude
Rises 02:56:09 0° 166° (SSE) 2,645 6.1 -13.0°
Reaches altitude 10° 02:58:25 10° 157° (SSE) 1,759 5.3 -12.7°
Maximum altitude 03:01:54 33° 92° (E) 887 4.5 -12.2°
Drops below altitude 10° 03:05:24 10° 27° (NNE) 1,764 6.4 -11.7°
Sets 03:07:40 0° 18° (NNE) 2,655 7.1 -11.4°
